Hourly Weather Holubivka

Today, 16 April, Friday

Time Temperature Precipitation Wind Pressure Humidity
00:00 +10°C° 0.1 mm 1 mps 743 mmHg 83%
01:00 +9°C° 0.1 mm 1 mps 743 mmHg 85%
02:00 +9°C° 0 mm 1 mps 743 mmHg 86%
03:00 +9°C° 0.2 mm 1 mps 743 mmHg 88%
04:00 +9°C° 0.2 mm 1 mps 743 mmHg 89%
05:00 +9°C° 0.2 mm 1 mps 743 mmHg 91%
06:00 +8°C° 0.2 mm 2 mps 743 mmHg 90%
07:00 +8°C° 0.2 mm 2 mps 743 mmHg 90%
08:00 +8°C° 0 mm 3 mps 744 mmHg 89%
09:00 +8°C° 0.1 mm 3 mps 744 mmHg 89%
10:00 +8°C° 0.1 mm 3 mps 744 mmHg 88%
11:00 +8°C° 0.1 mm 4 mps 745 mmHg 87%
12:00 +8°C° 0.4 mm 4 mps 745 mmHg 81%
13:00 +9°C° 0.4 mm 5 mps 745 mmHg 76%
14:00 +10°C° 0.4 mm 5 mps 745 mmHg 70%
15:00 +9°C° 0.3 mm 5 mps 745 mmHg 73%
16:00 +8°C° 0.3 mm 5 mps 745 mmHg 76%
17:00 +7°C° 0.3 mm 5 mps 745 mmHg 79%
18:00 +7°C° 0 mm 4 mps 745 mmHg 81%
19:00 +6°C° 0 mm 4 mps 745 mmHg 83%
20:00 +5°C° 0 mm 3 mps 746 mmHg 86%
21:00 +4°C° 0 mm 3 mps 746 mmHg 87%
22:00 +4°C° 0 mm 3 mps 746 mmHg 88%
23:00 +3°C° 0 mm 3 mps 746 mmHg 89%

Tomorrow, 17 April, Saturday

Time Temperature Precipitation Wind Pressure Humidity
00:00 +3°C° 0 mm 3 mps 746 mmHg 88%
01:00 +3°C° 0 mm 3 mps 747 mmHg 87%
02:00 +3°C° 0 mm 3 mps 747 mmHg 85%
03:00 +3°C° 0 mm 3 mps 747 mmHg 85%
04:00 +4°C° 0 mm 2 mps 747 mmHg 85%
05:00 +4°C° 0 mm 2 mps 747 mmHg 85%
06:00 +5°C° 0 mm 2 mps 747 mmHg 84%
07:00 +5°C° 0 mm 2 mps 748 mmHg 84%
08:00 +5°C° 0 mm 2 mps 748 mmHg 83%
09:00 +6°C° 0 mm 2 mps 748 mmHg 81%
10:00 +6°C° 0 mm 2 mps 749 mmHg 78%
11:00 +8°C° 0 mm 1 mps 749 mmHg 76%
12:00 +8°C° 0.1 mm 1 mps 749 mmHg 74%
13:00 +8°C° 0.1 mm 2 mps 749 mmHg 72%
14:00 +8°C° 0.1 mm 2 mps 749 mmHg 70%
15:00 +8°C° 0.1 mm 2 mps 749 mmHg 72%
16:00 +8°C° 0.1 mm 3 mps 749 mmHg 74%
17:00 +8°C° 0.1 mm 3 mps 749 mmHg 76%
18:00 +7°C° 0 mm 3 mps 749 mmHg 81%
19:00 +5°C° 0 mm 3 mps 749 mmHg 85%
20:00 +5°C° 0 mm 3 mps 749 mmHg 90%
21:00 +4°C° 0 mm 3 mps 749 mmHg 90%
22:00 +4°C° 0 mm 3 mps 749 mmHg 91%
23:00 +4°C° 0 mm 3 mps 749 mmHg 92%

Day after tomorrow, 18 April, Sunday

Time Temperature Precipitation Wind Pressure Humidity
00:00 +4°C° 0 mm 3 mps 749 mmHg 92%
01:00 +4°C° 0 mm 4 mps 749 mmHg 91%
02:00 +4°C° 0 mm 4 mps 748 mmHg 90%
03:00 +4°C° 0 mm 4 mps 748 mmHg 90%
04:00 +4°C° 0 mm 4 mps 748 mmHg 90%
05:00 +4°C° 0 mm 4 mps 748 mmHg 89%
06:00 +3°C° 0.1 mm 5 mps 747 mmHg 85%
07:00 +4°C° 0.1 mm 6 mps 747 mmHg 81%
08:00 +5°C° 0.1 mm 7 mps 747 mmHg 76%
09:00 +5°C° 0.8 mm 7 mps 747 mmHg 77%
10:00 +7°C° 0.8 mm 6 mps 747 mmHg 77%
11:00 +7°C° 0.8 mm 6 mps 747 mmHg 77%
12:00 +7°C° 0.8 mm 6 mps 747 mmHg 79%
13:00 +7°C° 0.8 mm 5 mps 747 mmHg 81%
14:00 +7°C° 0.8 mm 4 mps 747 mmHg 83%
15:00 +7°C° 0.1 mm 4 mps 747 mmHg 85%
16:00 +6°C° 0.1 mm 4 mps 747 mmHg 86%
17:00 +6°C° 0.1 mm 4 mps 747 mmHg 88%
18:00 +5°C° 0 mm 4 mps 747 mmHg 89%
19:00 +4°C° 0 mm 3 mps 747 mmHg 89%
20:00 +4°C° 0 mm 3 mps 748 mmHg 90%
21:00 +4°C° 0 mm 3 mps 748 mmHg 91%
22:00 +3°C° 0 mm 3 mps 748 mmHg 92%
23:00 +4°C° 0 mm 2 mps 748 mmHg 93%

19 April, Monday

Time Temperature Precipitation Wind Pressure Humidity
00:00 +4°C° 0 mm 2 mps 748 mmHg 91%
01:00 +4°C° 0 mm 2 mps 748 mmHg 90%
02:00 +4°C° 0 mm 2 mps 748 mmHg 89%
03:00 +4°C° 0 mm 2 mps 748 mmHg 89%
04:00 +4°C° 0 mm 1 mps 748 mmHg 90%
05:00 +4°C° 0 mm 1 mps 748 mmHg 90%
06:00 +5°C° 0 mm 1 mps 748 mmHg 84%
07:00 +7°C° 0 mm 1 mps 747 mmHg 78%
08:00 +8°C° 0 mm 1 mps 747 mmHg 73%
09:00 +9°C° 0 mm 1 mps 747 mmHg 68%
10:00 +10°C° 0 mm 1 mps 747 mmHg 63%
11:00 +12°C° 0 mm 1 mps 747 mmHg 58%
12:00 +12°C° 0 mm 1 mps 747 mmHg 56%
13:00 +13°C° 0 mm 1 mps 746 mmHg 55%
14:00 +14°C° 0 mm 1 mps 746 mmHg 53%
15:00 +14°C° 0 mm 1 mps 746 mmHg 54%
16:00 +14°C° 0 mm 1 mps 745 mmHg 56%
17:00 +14°C° 0 mm 2 mps 745 mmHg 57%
18:00 +13°C° 0.1 mm 2 mps 744 mmHg 65%
19:00 +10°C° 0.1 mm 3 mps 744 mmHg 73%
20:00 +8°C° 0.1 mm 4 mps 744 mmHg 81%
21:00 +8°C° 0 mm 4 mps 743 mmHg 84%
22:00 +8°C° 0 mm 3 mps 743 mmHg 87%
23:00 +8°C° 0 mm 3 mps 742 mmHg 90%

20 April, Tuesday

Time Temperature Precipitation Wind Pressure Humidity
00:00 +7°C° 0 mm 4 mps 741 mmHg 91%
01:00 +7°C° 0 mm 4 mps 740 mmHg 91%
02:00 +7°C° 0 mm 4 mps 739 mmHg 92%
03:00 +7°C° 0.1 mm 5 mps 738 mmHg 93%
04:00 +7°C° 0.1 mm 5 mps 737 mmHg 93%
05:00 +7°C° 0.1 mm 6 mps 736 mmHg 94%
06:00 +7°C° 2.8 mm 5 mps 735 mmHg 95%
07:00 +7°C° 2.8 mm 5 mps 734 mmHg 96%
08:00 +7°C° 2.8 mm 5 mps 732 mmHg 97%
09:00 +7°C° 2.1 mm 5 mps 732 mmHg 97%
10:00 +7°C° 2.1 mm 4 mps 731 mmHg 97%
11:00 +7°C° 2.1 mm 4 mps 731 mmHg 96%
12:00 +7°C° 0.5 mm 4 mps 731 mmHg 96%
13:00 +7°C° 0.5 mm 5 mps 731 mmHg 95%
14:00 +7°C° 0.5 mm 5 mps 731 mmHg 95%
15:00 +7°C° 1 mm 5 mps 731 mmHg 94%
16:00 +7°C° 1 mm 5 mps 732 mmHg 94%
17:00 +6°C° 1 mm 5 mps 732 mmHg 93%
18:00 +5°C° 0.6 mm 6 mps 733 mmHg 93%
19:00 +5°C° 0.6 mm 6 mps 734 mmHg 92%
20:00 +5°C° 0.6 mm 6 mps 735 mmHg 91%
21:00 +5°C° 0 mm 6 mps 736 mmHg 88%
22:00 +5°C° 0 mm 6 mps 736 mmHg 84%
23:00 +5°C° 0 mm 6 mps 737 mmHg 81%

21 April, Wednesday

Time Temperature Precipitation Wind Pressure Humidity
00:00 +4°C° 0 mm 6 mps 738 mmHg 83%
01:00 +4°C° 0 mm 6 mps 738 mmHg 84%
02:00 +3°C° 0 mm 6 mps 739 mmHg 86%
03:00 +3°C° 0 mm 6 mps 740 mmHg 87%
04:00 +3°C° 0 mm 6 mps 740 mmHg 89%
05:00 +2°C° 0 mm 6 mps 741 mmHg 91%
06:00 +4°C° 0 mm 6 mps 741 mmHg 87%
07:00 +5°C° 0 mm 7 mps 742 mmHg 83%
08:00 +6°C° 0 mm 8 mps 742 mmHg 79%
09:00 +8°C° 0 mm 7 mps 743 mmHg 75%
10:00 +8°C° 0 mm 7 mps 743 mmHg 71%
11:00 +9°C° 0 mm 7 mps 744 mmHg 67%
12:00 +10°C° 0 mm 7 mps 744 mmHg 65%
13:00 +10°C° 0 mm 7 mps 744 mmHg 62%
14:00 +11°C° 0 mm 7 mps 745 mmHg 59%
15:00 +11°C° 0 mm 6 mps 745 mmHg 60%
16:00 +12°C° 0 mm 5 mps 746 mmHg 62%
17:00 +12°C° 0 mm 5 mps 746 mmHg 63%
18:00 +11°C° 0 mm 4 mps 746 mmHg 68%
19:00 +9°C° 0 mm 3 mps 747 mmHg 74%
20:00 +8°C° 0 mm 3 mps 747 mmHg 79%
21:00 +7°C° 0 mm 3 mps 748 mmHg 80%
22:00 +7°C° 0 mm 3 mps 748 mmHg 82%
23:00 +7°C° 0 mm 2 mps 748 mmHg 83%
Show more